Location: Morlupo
(42.1333°N, 12.5000°E)
Time: 19:55:54
(UTC+00:00)

Okean-O - Visible Passes

Search period start: 26 January 2021 00:00
Search period end: 05 February 2021 00:00
Orbit: 639 x 640 km, 98.2° (Epoch: 26 January)

Date Brightness Start Highest point End Pass type
(mag) Time Alt. Az. Time Alt. Az. Time Alt. Az.
26 Jan 3.2 17:14:43 10° SE 17:18:44 35° ENE 17:22:48 10° N visible
26 Jan 5.1 18:51:53 10° SW 18:55:18 22° W 18:58:44 10° NW visible
27 Jan 2.6 17:37:36 10° SSE 17:41:58 62° ENE 17:46:22 10° N visible
27 Jan 5.8 19:16:59 10° WSW 19:18:50 12° W 19:20:43 10° WNW visible
28 Jan 6.2 05:29:39 10° ENE 05:30:59 11° E 05:32:19 10° ESE visible
28 Jan 2.8 18:00:52 10° S 18:05:17 74° WSW 18:09:44 10° NNW visible
29 Jan 5.6 05:51:17 10° NE 05:54:33 20° E 05:57:47 10° SE visible
29 Jan 3.9 16:49:17 10° ESE 16:52:28 20° ENE 16:55:41 10° NNE visible
29 Jan 3.9 18:24:28 10° S 18:28:39 41° W 18:32:52 10° NNW visible
30 Jan 3.3 17:11:40 10° SE 17:15:37 33° ENE 17:19:35 10° N visible
30 Jan 4.9 18:48:33 10° SSW 18:52:07 24° W 18:55:42 10° NW visible
31 Jan 2.6 17:34:30 10° SSE 17:38:49 57° ENE 17:43:11 10° N visible
31 Jan 5.7 19:13:26 10° WSW 19:15:39 14° W 19:17:53 10° WNW visible
01 Feb 6.4 05:27:27 10° E 05:27:47 10° E 05:28:07 10° E visible
01 Feb 2.7 17:57:41 10° S 18:02:07 81° WSW 18:06:35 10° NNW visible
02 Feb 5.7 05:48:17 10° NE 05:51:22 18° E 05:54:25 10° SE visible
02 Feb 3.7 18:21:15 10° S 18:25:29 45° W 18:29:45 10° NNW visible
03 Feb 3.4 17:08:38 10° SE 17:12:28 30° ENE 17:16:21 10° N visible
03 Feb 4.8 18:45:14 10° SSW 18:48:55 26° W 18:52:39 10° NW visible
04 Feb 2.7 17:31:23 10° SSE 17:35:41 52° ENE 17:40:00 10° N visible
04 Feb 5.6 19:09:56 10° SW 19:12:27 15° W 19:14:59 10° WNW visible
